Location: Kolin
(50.0330°N, 15.2000°E)
Time: 22:46:48
(UTC+01:00)

ISS - Visible Passes

Search period start: 12 November 2018 00:00
Search period end: 22 November 2018 00:00
Orbit: 402 x 409 km, 51.6° (Epoch: 13 November)

Date Brightness Start Highest point End Pass type
(mag) Time Alt. Az. Time Alt. Az. Time Alt. Az.
12 Nov -1.2 04:19:04 19° ESE 04:19:04 19° ESE 04:20:10 10° ESE visible
12 Nov -2.1 05:51:45 16° WSW 05:53:02 20° SW 05:55:29 10° S visible
13 Nov -2.2 05:02:02 26° S 05:02:02 26° S 05:04:04 10° SSE visible
14 Nov -1.3 05:45:06 10° SW 05:45:06 10° SW 05:45:26 10° SW visible
